sat.trackr.live / text

‹ back to catalog

STARLINK-35261

NORAD 65595 · 2025-207D

PAYLOAD ACTIVE UNKNOWN

§ Identity

Operator
Country
US
Launch date
2025-09-13
Launch site
AFWTR
Launch vehicle
Mass (kg)
RCS (m²)

Purposes: comms

External: N2YO · Heavens-Above · Gunter

§ Orbital elements

Epoch: 2026-05-25T04:11:35.681856Z

Period
95.64 min
Inclination
97.4508°
Eccentricity
0.0001248
Mean motion
15.05647596 rev/d
Perigee alt
548.7 km
Apogee alt
550.4 km
Semi-major
6,927.7 km
B*
1.5339e-5
RAAN
213.7388°
Arg perigee
177.9310°
Mean anomaly
182.1923°
Rev number
3,977

§ Raw data

STARLINK-352611 65595U 25207D   26145.17471854  .00000163  00000+0  15339-4 0  99952 65595  97.4508 213.7388 0001248 177.9310 182.1923 15.05647596 39770

JSON: /api/v1/satellites/65595 · /tle

For live sub-satellite position, see the globe view (requires WebGL).

§ Visibility from observer

Set your observer location to see the next 7 days of passes ≥ 10°. The values pass through the URL so the page stays shareable.

No JS? Fill the form by hand. The geolocation button needs JavaScript.